When you browse on this site, cookies collect data to enhance your experience and personalize the content and advertising you see.
Visit our Privacy Policy to learn more. By continuing to use the site, you agree to this use of cookies and data.
  • Em Portugal
  • Lista de países
  • Para 7 dias
  • Temperatura da água
  • Mapas de satélite
  • Mapa do tempo
  • Widgets de tempo
  • user-avatar
    Iniciar Sessão

    Previsão horária em Bolotnya

    Hoje, 24 Junho, Segunda-feira

    Tempo Temperatura Precipitação Vento Pressão Humidade
    00:00 +16°C° 0 mm 3 m/s 753 mmHg 96%
    01:00 +16°C° 0 mm 3 m/s 754 mmHg 96%
    02:00 +14°C° 0 mm 3 m/s 754 mmHg 97%
    03:00 +14°C° 0 mm 3 m/s 754 mmHg 96%
    04:00 +16°C° 0 mm 3 m/s 754 mmHg 96%
    05:00 +16°C° 0 mm 3 m/s 754 mmHg 95%
    06:00 +17°C° 0 mm 4 m/s 755 mmHg 89%
    07:00 +19°C° 0 mm 4 m/s 755 mmHg 84%
    08:00 +20°C° 0 mm 4 m/s 755 mmHg 77%
    09:00 +22°C° 0 mm 4 m/s 755 mmHg 73%
    10:00 +23°C° 0 mm 4 m/s 755 mmHg 69%
    11:00 +25°C° 0 mm 4 m/s 755 mmHg 65%
    12:00 +26°C° 0 mm 4 m/s 756 mmHg 63%
    13:00 +26°C° 0 mm 4 m/s 756 mmHg 61%
    14:00 +27°C° 0 mm 4 m/s 756 mmHg 59%
    15:00 +26°C° 0 mm 4 m/s 756 mmHg 61%
    16:00 +26°C° 0 mm 4 m/s 756 mmHg 63%
    17:00 +26°C° 0 mm 4 m/s 756 mmHg 64%
    18:00 +24°C° 0 mm 3 m/s 756 mmHg 69%
    19:00 +22°C° 0 mm 3 m/s 757 mmHg 75%
    20:00 +20°C° 0 mm 3 m/s 757 mmHg 80%
    21:00 +19°C° 0 mm 2 m/s 757 mmHg 83%
    22:00 +17°C° 0 mm 2 m/s 757 mmHg 85%
    23:00 +16°C° 0 mm 2 m/s 758 mmHg 88%

    Amanhã, 25 Junho, Terça-feira

    Tempo Temperatura Precipitação Vento Pressão Humidade
    00:00 +16°C° 0 mm 2 m/s 758 mmHg 88%
    01:00 +15°C° 0 mm 2 m/s 758 mmHg 88%
    02:00 +15°C° 0 mm 2 m/s 759 mmHg 87%
    03:00 +14°C° 0 mm 2 m/s 759 mmHg 87%
    04:00 +14°C° 0 mm 2 m/s 759 mmHg 87%
    05:00 +14°C° 0 mm 2 m/s 758 mmHg 86%
    06:00 +16°C° 0 mm 2 m/s 759 mmHg 81%
    07:00 +18°C° 0 mm 2 m/s 759 mmHg 75%
    08:00 +20°C° 0 mm 2 m/s 759 mmHg 69%
    09:00 +21°C° 0 mm 2 m/s 759 mmHg 64%
    10:00 +24°C° 0 mm 2 m/s 759 mmHg 58%
    11:00 +25°C° 0 mm 2 m/s 759 mmHg 52%
    12:00 +26°C° 0 mm 3 m/s 759 mmHg 51%
    13:00 +26°C° 0 mm 3 m/s 759 mmHg 50%
    14:00 +26°C° 0 mm 3 m/s 759 mmHg 48%
    15:00 +26°C° 0 mm 2 m/s 759 mmHg 50%
    16:00 +26°C° 0 mm 2 m/s 759 mmHg 52%
    17:00 +26°C° 0 mm 2 m/s 759 mmHg 54%
    18:00 +24°C° 0 mm 2 m/s 759 mmHg 61%
    19:00 +22°C° 0 mm 1 m/s 759 mmHg 68%
    20:00 +21°C° 0 mm 1 m/s 759 mmHg 75%
    21:00 +20°C° 0 mm 1 m/s 759 mmHg 78%
    22:00 +18°C° 0 mm 1 m/s 759 mmHg 81%
    23:00 +16°C° 0 mm 1 m/s 759 mmHg 84%

    Depois de amanhã, 26 Junho, Quarta-feira

    Tempo Temperatura Precipitação Vento Pressão Humidade
    00:00 +16°C° 0 mm 1 m/s 759 mmHg 86%
    01:00 +16°C° 0 mm 1 m/s 759 mmHg 88%
    02:00 +15°C° 0 mm 1 m/s 759 mmHg 89%
    03:00 +16°C° 0 mm 1 m/s 759 mmHg 89%
    04:00 +16°C° 0 mm 1 m/s 758 mmHg 88%
    05:00 +16°C° 0 mm 1 m/s 758 mmHg 88%
    06:00 +19°C° 0 mm 1 m/s 758 mmHg 82%
    07:00 +20°C° 0 mm 1 m/s 758 mmHg 77%
    08:00 +22°C° 0 mm 1 m/s 758 mmHg 71%
    09:00 +23°C° 0 mm 1 m/s 758 mmHg 67%
    10:00 +25°C° 0 mm 2 m/s 757 mmHg 62%
    11:00 +26°C° 0 mm 2 m/s 757 mmHg 58%
    12:00 +26°C° 0 mm 2 m/s 757 mmHg 57%
    13:00 +27°C° 0 mm 3 m/s 756 mmHg 56%
    14:00 +27°C° 0 mm 3 m/s 756 mmHg 55%
    15:00 +27°C° 0 mm 3 m/s 755 mmHg 57%
    16:00 +27°C° 0 mm 3 m/s 754 mmHg 59%
    17:00 +27°C° 0 mm 3 m/s 754 mmHg 61%
    18:00 +26°C° 0 mm 3 m/s 753 mmHg 67%
    19:00 +24°C° 0 mm 2 m/s 753 mmHg 73%
    20:00 +21°C° 0 mm 2 m/s 752 mmHg 80%
    21:00 +21°C° 0 mm 2 m/s 752 mmHg 82%
    22:00 +20°C° 0 mm 2 m/s 752 mmHg 84%
    23:00 +19°C° 0 mm 3 m/s 751 mmHg 86%

    27 Junho, Quinta-feira

    Tempo Temperatura Precipitação Vento Pressão Humidade
    00:00 +19°C° 0 mm 3 m/s 750 mmHg 87%
    01:00 +19°C° 0 mm 3 m/s 750 mmHg 87%
    02:00 +19°C° 0 mm 3 m/s 749 mmHg 88%
    03:00 +19°C° 0.1 mm 4 m/s 748 mmHg 89%
    04:00 +19°C° 0.1 mm 4 m/s 747 mmHg 89%
    05:00 +19°C° 0.1 mm 4 m/s 747 mmHg 90%
    06:00 +20°C° 1.1 mm 4 m/s 746 mmHg 91%
    07:00 +21°C° 1.1 mm 5 m/s 745 mmHg 92%
    08:00 +21°C° 1.1 mm 5 m/s 744 mmHg 93%
    09:00 +22°C° 0.4 mm 5 m/s 744 mmHg 91%
    10:00 +23°C° 0.4 mm 6 m/s 743 mmHg 88%
    11:00 +24°C° 0.4 mm 6 m/s 743 mmHg 85%
    12:00 +24°C° 0.5 mm 7 m/s 743 mmHg 81%
    13:00 +24°C° 0.5 mm 7 m/s 743 mmHg 76%
    14:00 +24°C° 0.5 mm 8 m/s 743 mmHg 71%
    15:00 +23°C° 0.2 mm 8 m/s 743 mmHg 71%
    16:00 +22°C° 0.2 mm 8 m/s 743 mmHg 71%
    17:00 +20°C° 0.2 mm 8 m/s 743 mmHg 71%
    18:00 +18°C° 0 mm 7 m/s 744 mmHg 73%
    19:00 +19°C° 0 mm 6 m/s 744 mmHg 75%
    20:00 +17°C° 0 mm 5 m/s 744 mmHg 77%
    21:00 +16°C° 0 mm 5 m/s 744 mmHg 75%
    22:00 +15°C° 0 mm 5 m/s 744 mmHg 73%
    23:00 +15°C° 0 mm 6 m/s 744 mmHg 71%

    28 Junho, Sexta-feira

    Tempo Temperatura Precipitação Vento Pressão Humidade
    00:00 +14°C° 0 mm 6 m/s 745 mmHg 72%
    01:00 +13°C° 0 mm 5 m/s 745 mmHg 73%
    02:00 +12°C° 0 mm 5 m/s 745 mmHg 74%
    03:00 +11°C° 0 mm 6 m/s 745 mmHg 74%
    04:00 +10°C° 0 mm 6 m/s 745 mmHg 75%
    05:00 +10°C° 0 mm 6 m/s 745 mmHg 75%
    06:00 +11°C° 0 mm 7 m/s 745 mmHg 73%
    07:00 +12°C° 0 mm 7 m/s 744 mmHg 71%
    08:00 +13°C° 0 mm 8 m/s 744 mmHg 68%
    09:00 +15°C° 0 mm 8 m/s 744 mmHg 66%
    10:00 +16°C° 0 mm 8 m/s 744 mmHg 63%
    11:00 +18°C° 0 mm 8 m/s 744 mmHg 60%
    12:00 +18°C° 0 mm 8 m/s 744 mmHg 59%
    13:00 +18°C° 0 mm 8 m/s 744 mmHg 57%
    14:00 +18°C° 0 mm 8 m/s 743 mmHg 56%
    15:00 +18°C° 0 mm 8 m/s 743 mmHg 57%
    16:00 +18°C° 0 mm 7 m/s 743 mmHg 58%
    17:00 +18°C° 0 mm 7 m/s 743 mmHg 60%
    18:00 +17°C° 0 mm 6 m/s 743 mmHg 64%
    19:00 +16°C° 0 mm 6 m/s 743 mmHg 69%
    20:00 +14°C° 0 mm 5 m/s 743 mmHg 74%
    21:00 +14°C° 0 mm 5 m/s 743 mmHg 74%
    22:00 +14°C° 0 mm 5 m/s 744 mmHg 74%
    23:00 +13°C° 0 mm 5 m/s 744 mmHg 74%

    29 Junho, Sábado

    Tempo Temperatura Precipitação Vento Pressão Humidade
    00:00 +13°C° 0 mm 6 m/s 744 mmHg 73%
    01:00 +11°C° 0 mm 6 m/s 743 mmHg 72%
    02:00 +11°C° 0 mm 6 m/s 743 mmHg 71%
    03:00 +10°C° 0 mm 6 m/s 743 mmHg 73%
    04:00 +9°C° 0 mm 6 m/s 743 mmHg 75%
    05:00 +8°C° 0 mm 6 m/s 744 mmHg 77%
    06:00 +9°C° 0 mm 7 m/s 744 mmHg 73%
    07:00 +11°C° 0 mm 8 m/s 744 mmHg 69%
    08:00 +12°C° 0 mm 8 m/s 744 mmHg 66%
    09:00 +13°C° 0 mm 9 m/s 744 mmHg 61%
    10:00 +15°C° 0 mm 9 m/s 744 mmHg 57%
    11:00 +15°C° 0 mm 9 m/s 744 mmHg 52%
    12:00 +16°C° 0 mm 9 m/s 744 mmHg 51%
    13:00 +16°C° 0 mm 9 m/s 744 mmHg 49%
    14:00 +16°C° 0 mm 9 m/s 744 mmHg 48%
    15:00 +16°C° 0 mm 8 m/s 744 mmHg 50%
    16:00 +16°C° 0 mm 8 m/s 744 mmHg 51%
    17:00 +16°C° 0 mm 7 m/s 744 mmHg 53%
    18:00 +15°C° 0 mm 7 m/s 744 mmHg 56%
    19:00 +14°C° 0 mm 6 m/s 744 mmHg 59%
    20:00 +13°C° 0 mm 6 m/s 744 mmHg 62%
    21:00 +13°C° 0 mm 6 m/s 745 mmHg 61%
    22:00 +11°C° 0 mm 6 m/s 745 mmHg 59%
    23:00 +11°C° 0 mm 6 m/s 745 mmHg 57%
    Mostrar mais